This demonstration page uses our WeatherBlox Daily Observations layout. Learn more.

Left ArrowRight Arrow

40.92501, -98.34201

Hourly Observations for July 15, 2021

Temp ( °F °C ) Dew Point ( °F °C ) Humidity (%) Winds ( mph kmh ) Pressure ( in mb ) Visibility ( mi km ) Precip ( " mm )
12:53 am 00:53 Cloudy 70 21.1 67 19.4 90 90 ENE 7 11 29.99 1016 7 11 0.00 0.00
1:53 am 01:53 Cloudy with Mist and Fog 70 21.1 67 19.4 90 90 E 6 9 29.98 1015 6 10 0.00 0.00
2:53 am 02:53 Cloudy with Mist and Fog 70 21.1 66 18.9 87 87 ENE 7 11 29.97 1015 5 8 0.00 0.00
3:53 am 03:53 Cloudy with Mist and Fog 69 20.6 66 18.9 90 90 NE 6 9 29.97 1015 4 6 0.00 0.00
4:35 am 04:35 Cloudy with Mist and Fog 69 20.6 66 18.9 90 90 NE 6 9 29.94 1014 3 5 0.00 0.00
4:53 am 04:53 Cloudy with Mist and Fog 69 20.6 66 18.9 90 90 ENE 9 15 29.97 1015 4 6 0.00 0.00
5:00 am 05:00 Cloudy with Mist and Fog 69 20.6 66 18.9 90 90 E 9 15 29.94 1014 4 6 0.00 0.00
5:39 am 05:39 Cloudy with Mist and Fog 69 20.6 66 18.9 90 90 ENE 6 9 29.94 1014 4 6 0.00 0.00
5:53 am 05:53 Cloudy with Mist and Fog 69 20.6 66 18.9 90 90 ENE 6 9 29.97 1015 4 6 0.00 0.00
6:46 am 06:46 Cloudy with Mist and Fog 69 20.6 66 18.9 90 90 NE 8 13 29.95 1014 2 3 0.00 0.00
6:53 am 06:53 Cloudy with Mist and Fog 69 20.6 66 18.9 90 90 NE 8 13 29.98 1015 2 3 0.00 0.00
7:53 am 07:53 Cloudy with Mist and Fog 69 20.6 66 18.9 90 90 ENE 8 13 29.99 1016 3 4 0.00 0.00
8:11 am 08:11 Cloudy with Mist and Fog 69 20.6 66 18.9 90 90 ENE 8 13 29.96 1014 2 3 0.00 0.00
8:27 am 08:27 Cloudy with Mist and Fog 69 20.6 66 18.9 90 90 ENE 8 13 29.96 1014 2 3 0.00 0.00
8:43 am 08:43 Cloudy with Mist and Fog 69 20.6 66 18.9 90 90 ENE 9 15 29.96 1014 2 2 0.00 0.00
8:53 am 08:53 Cloudy with Mist and Fog 69 20.6 66 18.9 90 90 ENE 8 13 30.00 1016 1 2 0.00 0.00
9:07 am 09:07 Cloudy with Mist and Fog 69 20.6 67 19.4 93 93 ENE 8 13 29.97 1015 1 2 0.00 0.00
9:18 am 09:18 Cloudy with Mist and Fog 69 20.6 67 19.4 93 93 ENE 8 13 29.96 1014 2 2 0.00 0.00
9:34 am 09:34 Cloudy with Mist and Fog 70 21.1 67 19.4 90 90 ENE 8 13 29.95 1014 3 4 0.00 0.00
9:43 am 09:43 Cloudy with Mist and Fog 70 21.1 67 19.4 90 90 ENE 6 9 29.96 1015 3 5 0.00 0.00
9:53 am 09:53 Cloudy with Mist and Fog 70 21.1 67 19.4 90 90 E 8 13 30.00 1016 4 6 0.00 0.00
10:53 am 10:53 Cloudy 71 21.7 67 19.4 87 87 E 6 9 30.01 1016 9 14 0.00 0.00
11:45 am 11:45 Cloudy 74 23.3 67 19.4 79 79 NNE 7 11 29.95 1014 10 16 0.00 0.00
11:53 am 11:53 Cloudy 75 23.9 68 20 79 79 VRB 6 9 30.00 1016 10 16 0.00 0.00
12:37 pm 12:37 Cloudy 76 24.4 68 20 77 77 NE 9 15 29.93 1014 8 13 0.00 0.00
12:53 pm 12:53 Cloudy 76 24.4 68 20 77 77 NE 7 11 29.99 1016 9 14 0.00 0.00
1:53 pm 13:53 Cloudy 76 24.4 68 20 77 77 NE 13 20 29.99 1016 9 14 0.00 0.00
2:53 pm 14:53 Cloudy 77 25 68 20 74 74 NE 10 17 29.98 1015 10 16 0.00 0.00
3:53 pm 15:53 Mostly Cloudy 77 25 67 19.4 71 71 E 10 17 29.98 1015 10 16 0.00 0.00
4:43 pm 16:43 Cloudy 77 25 68 20 74 74 E 13 20 29.91 1013 10 16 0.00 0.00
4:53 pm 16:53 Cloudy 77 25 67 19.4 71 71 E 12 19 29.98 1015 10 16 0.00 0.00
5:53 pm 17:53 Mostly Cloudy 77 25 68 20 74 74 E 12 19 29.96 1015 10 16 0.00 0.00
6:48 pm 18:48 Mostly Cloudy 75 24 66 19 74 74 E 12 19 29.90 1013 10 16 0.00 0.00
6:53 pm 18:53 Mostly Cloudy 76 24.4 67 19.4 74 74 E 12 19 29.96 1015 10 16 0.00 0.00
7:43 pm 19:43 Mostly Sunny 75 23.9 67 19.4 76 76 E 8 13 29.90 1012 10 16 0.00 0.00
7:53 pm 19:53 Partly Cloudy 75 23.9 67 19.4 76 76 E 7 11 29.96 1014 10 16 0.00 0.00
8:00 pm 20:00 Mostly Cloudy 75 23.9 68 20 79 79 E 7 11 29.90 1012 10 16 0.00 0.00
8:31 pm 20:31 Mostly Sunny 73 22.8 68 20 84 84 E 6 9 29.90 1013 10 16 0.00 0.00
8:53 pm 20:53 Sunny 72 22.2 68 20 87 87 ENE 3 6 29.96 1015 10 16 0.00 0.00
9:53 pm 21:53 Mostly Cloudy 71 21.7 68 20 90 90 ENE 5 7 29.97 1015 8 13 0.00 0.00
10:53 pm 22:53 Cloudy 71 21.7 68 20 90 90 ENE 5 7 29.98 1015 7 11 0.00 0.00
11:41 pm 23:41 Mostly Clear with Mist and Fog 70 21.1 67 19.4 90 90 ENE 3 6 29.94 1014 5 8 0.00 0.00
11:53 pm 23:53 Mostly Clear with Mist and Fog 69 20.6 67 19.4 93 93 E 3 6 29.98 1015 5 8 0.00 0.00

Powered by AerisWeather